Location: Winter Haven
(28.0220°N, 81.7330°W)
Time: 12:44:06
(UTC-04:00)

Amateur Radio Satellites - All Passes

Search period start: 21 October 2014 12:14
Search period end: 22 October 2014 12:14
Location: Winter Haven, 28.0220°N, 81.7330°W

Satellite Date Start Highest point End Downlink Frequencies (MHz)
Time Altitude Azimuth
Oscar 11 21 Oct 12:18:48 12:20:36 13° 291° (WNW) 12:22:25 145.825 FM, Beacon 2401.500 USB
HO-68 21 Oct 12:33:38 12:34:14 10° 301° (WNW) 12:34:50 435.675 MHz FM
PANSAT 21 Oct 12:45:41 12:49:31 83° 189° (S) 12:53:22 not established
ZACube-1 21 Oct 12:57:45 12:58:45 11° 292° (WNW) 12:59:45 437.345 MHz
Oscar 19 21 Oct 13:00:54 13:01:43 10° 66° (ENE) 13:02:32 437.125 CW, 437.150 USB
JAS-1B 21 Oct 13:13:29 13:16:35 14° 68° (ENE) 13:19:32 435.800 - 435.900 CW/SSB
Oscar 16 21 Oct 13:41:50 13:46:24 33° 72° (ENE) 13:50:57 437.025 USB, Beacon 2401.1428
KITSAT 1 21 Oct 13:42:47 13:50:47 67° 296° (WNW) 13:58:49 435.175 FM
Uribyol 2 21 Oct 13:55:48 13:59:10 18° 68° (ENE) 14:02:32 436.500 FM
ISS 21 Oct 13:58:18 14:01:36 72° 314° (NW) 14:04:55 145.800 FM
ITAMSAT 1 21 Oct 14:00:42 14:04:11 18° 68° (ENE) 14:07:40 435.822 SSB
AO-Echo 21 Oct 14:08:19 14:12:18 27° 71° (ENE) 14:16:22 ?
SO-50 21 Oct 14:25:15 14:29:36 54° 299° (WNW) 14:34:03 436.795 FM
PANSAT 21 Oct 14:26:02 14:29:31 33° 200° (SSW) 14:33:00 not established
UOSAT-12 21 Oct 14:33:16 14:34:09 11° 106° (ESE) 14:35:01 437.025 FM, 437.400 FM
Oscar 19 21 Oct 14:35:17 14:40:25 67° 258° (WSW) 14:45:33 437.125 CW, 437.150 USB
Sapphire 21 Oct 14:35:36 14:40:27 32° 61° (ENE) 14:45:16 437.095 MHz 1200 baud AX-25 AFSK
AO-27 21 Oct 14:43:28 14:48:31 54° 74° (ENE) 14:53:35 436.795 MHz FM
PCSat 21 Oct 14:58:13 15:03:34 59° 65° (ENE) 15:08:53 145.825 MHz
JAS-1B 21 Oct 15:00:28 15:06:53 56° 258° (WSW) 15:12:36 435.800 - 435.900 CW/SSB
Oscar 16 21 Oct 15:21:51 15:25:41 21° 263° (W) 15:29:32 437.025 USB, Beacon 2401.1428
Uribyol 2 21 Oct 15:33:22 15:38:14 41° 260° (W) 15:43:09 436.500 FM
Gurwin Techsat 1B 21 Oct 15:35:38 15:40:57 90° 258° (WSW) 15:46:16 435.225 FM
Oscar 10/S400 21 Oct 15:36:03 15:55:13 74° 162° (SSE) 16:28:19 145.825 - 145.975 CW/USB, Beacon 145.810 USB
ITAMSAT 1 21 Oct 15:38:29 15:43:18 39° 261° (W) 15:48:09 435.822 SSB
KITSAT 1 21 Oct 15:45:26 15:47:38 11° 315° (NW) 15:49:50 435.175 FM
AO-Echo 21 Oct 15:47:16 15:50:57 22° 264° (W) 15:54:44 ?
TMSAT-1 21 Oct 15:49:22 15:54:39 89° 77° (ENE) 15:59:59 436.925 FM
UOSAT-12 21 Oct 16:09:15 16:13:44 54° 299° (WNW) 16:18:19 437.025 FM, 437.400 FM
AO-40 21 Oct 16:17:23 23:42:17 55° 183° (S) 05:52:17 Beacon 2401.320
Sapphire 21 Oct 16:19:22 16:23:38 24° 254° (WSW) 16:27:52 437.095 MHz 1200 baud AX-25 AFSK
AO-27 21 Oct 16:26:12 16:28:13 12° 266° (W) 16:30:15 436.795 MHz FM
AO-7 21 Oct 16:27:42 16:35:38 53° 69° (ENE) 16:43:33 29.400 - 29.500 MHz
PCSat 21 Oct 16:44:20 16:46:23 12° 257° (WSW) 16:48:25 145.825 MHz
JAS-2 21 Oct 17:15:48 17:19:37 19° 65° (ENE) 17:23:41 435.800 - 435.900 CW/SSB, 435.910 FM
OPAL 21 Oct 17:26:56 17:28:53 12° 96° (E) 17:30:49 ?
Uosat F 21 Oct 17:27:21 17:32:19 67° 258° (WSW) 17:37:19 435.120 FM
Hamsat 21 Oct 17:51:35 17:54:44 21° 72° (ENE) 17:57:51 145.90 MHz
Saudisat 1A 21 Oct 18:12:31 18:16:35 35° 60° (ENE) 18:20:37 436.775 MHz
AO-7 21 Oct 18:21:57 18:28:31 26° 262° (W) 18:35:08 29.400 - 29.500 MHz
JAS-2 21 Oct 18:58:54 19:04:08 45° 262° (W) 19:09:58 435.800 - 435.900 CW/SSB, 435.910 FM
OPAL 21 Oct 19:03:09 19:07:55 50° 288° (WNW) 19:12:40 ?
STRAND 1 21 Oct 19:04:54 19:07:24 14° 95° (E) 19:09:54 ?
Hamsat 21 Oct 19:27:12 19:30:30 22° 263° (W) 19:33:47 145.90 MHz
Saudisat 1A 21 Oct 19:53:16 19:55:48 15° 251° (WSW) 19:58:19 436.775 MHz
SO-67 21 Oct 20:00:34 20:03:59 77° 259° (W) 20:07:25 435.3500 MHz FM
STRAND 1 21 Oct 20:41:47 20:46:44 49° 286° (WNW) 20:51:39 ?
HO-68 21 Oct 21:01:36 21:08:05 39° 69° (ENE) 21:14:36 435.675 MHz FM
RS-15 21 Oct 21:14:48 21:20:44 16° 102° (ESE) 21:26:34 29.354 - 29.394 USB, Beacon 29.352 USB
Oscar 11 21 Oct 21:30:53 21:32:59 13° 70° (ENE) 21:35:06 145.825 FM, Beacon 2401.500 USB
KITSAT 1 21 Oct 21:45:25 21:50:52 19° 51° (NE) 21:56:16 435.175 FM
ISS 21 Oct 22:08:55 22:12:11 54° 46° (NE) 22:15:27 145.800 FM
ZACube-1 21 Oct 22:09:22 22:12:16 17° 70° (ENE) 22:15:10 437.345 MHz
UKube-1 21 Oct 22:19:43 22:24:01 68° 76° (ENE) 22:28:21 145.840 MHz, 145.915 MHz
HO-68 21 Oct 22:49:39 22:55:42 30° 262° (W) 23:01:49 435.675 MHz FM
FUNcube-1 21 Oct 22:53:08 22:57:39 56° 76° (ENE) 23:02:08 145.950 - 145.970 MHz USB
SO-50 21 Oct 23:03:56 23:07:43 22° 56° (NE) 23:11:30 436.795 FM
Oscar 11 21 Oct 23:04:48 23:08:48 36° 261° (W) 23:12:48 145.825 FM, Beacon 2401.500 USB
RS-15 21 Oct 23:20:32 23:31:41 87° 295° (WNW) 23:42:39 29.354 - 29.394 USB, Beacon 29.352 USB
KITSAT 1 21 Oct 23:38:54 23:46:57 77° 248° (WSW) 23:54:59 435.175 FM
ZACube-1 21 Oct 23:44:10 23:48:20 34° 262° (W) 23:52:30 437.345 MHz
SO-50 22 Oct 00:43:56 00:48:15 32° 249° (WSW) 00:52:33 436.795 FM
UOSAT-12 22 Oct 00:46:17 00:49:46 20° 55° (NE) 00:53:12 437.025 FM, 437.400 FM
MaSat-1 22 Oct 01:04:13 01:08:32 55° 292° (WNW) 01:12:33 437.345 MHz
RS-15 22 Oct 01:38:13 01:45:32 20° 316° (NW) 01:52:53 29.354 - 29.394 USB, Beacon 29.352 USB
Oscar 16 22 Oct 02:01:07 02:04:52 20° 96° (E) 02:08:36 437.025 USB, Beacon 2401.1428
Uribyol 2 22 Oct 02:18:10 02:18:20 10° 93° (E) 02:18:30 436.500 FM
ITAMSAT 1 22 Oct 02:22:15 02:23:33 11° 94° (E) 02:24:50 435.822 SSB
AO-Echo 22 Oct 02:22:55 02:26:21 17° 95° (E) 02:29:46 ?
UOSAT-12 22 Oct 02:25:47 02:29:54 31° 249° (WSW) 02:33:56 437.025 FM, 437.400 FM
JAS-1B 22 Oct 02:49:44 02:56:33 59° 103° (ESE) 03:04:42 435.800 - 435.900 CW/SSB
Oscar 19 22 Oct 02:53:58 02:59:05 79° 103° (ESE) 03:04:11 437.125 CW, 437.150 USB
AO-27 22 Oct 03:03:51 03:08:37 35° 99° (E) 03:13:21 436.795 MHz FM
Sapphire 22 Oct 03:31:39 03:32:26 10° 103° (ESE) 03:33:13 437.095 MHz 1200 baud AX-25 AFSK
Oscar 16 22 Oct 03:39:39 03:44:11 33° 288° (WNW) 03:48:41 437.025 USB, Beacon 2401.1428
PCSat 22 Oct 03:51:10 03:55:07 21° 106° (ESE) 03:59:04 145.825 MHz
Uribyol 2 22 Oct 03:52:56 03:58:05 64° 285° (WNW) 04:03:11 436.500 FM
ITAMSAT 1 22 Oct 03:58:08 04:03:17 60° 285° (WNW) 04:08:23 435.822 SSB
Gurwin Techsat 1B 22 Oct 03:59:02 04:04:20 67° 102° (ESE) 04:09:35 435.225 FM
AO-Echo 22 Oct 04:00:11 04:05:09 42° 287° (WNW) 04:10:07 ?
TMSAT-1 22 Oct 04:12:24 04:17:40 65° 101° (ESE) 04:22:54 436.925 FM
OPAL 22 Oct 04:36:03 04:37:43 12° 64° (ENE) 04:39:23 ?
AO-7 22 Oct 04:37:58 04:44:39 27° 99° (E) 04:51:18 29.400 - 29.500 MHz
JAS-1B 22 Oct 04:42:05 04:46:50 20° 291° (WNW) 04:52:08 435.800 - 435.900 CW/SSB
AO-27 22 Oct 04:44:04 04:47:49 20° 291° (WNW) 04:51:32 436.795 MHz FM
Sapphire 22 Oct 05:09:50 05:15:11 67° 295° (WNW) 05:20:35 437.095 MHz 1200 baud AX-25 AFSK
PCSat 22 Oct 05:33:15 05:38:12 36° 298° (WNW) 05:43:11 145.825 MHz
Uosat F 22 Oct 05:42:03 05:47:06 69° 102° (ESE) 05:52:06 435.120 FM
Gurwin Techsat 1B 22 Oct 05:42:13 05:43:39 11° 294° (WNW) 05:45:05 435.225 FM
TMSAT-1 22 Oct 05:55:24 05:56:57 11° 294° (WNW) 05:58:30 436.925 FM
OPAL 22 Oct 06:10:53 06:16:01 64° 257° (WSW) 06:21:07 ?
JAS-2 22 Oct 06:14:18 06:21:34 41° 98° (E) 06:28:42 435.800 - 435.900 CW/SSB, 435.910 FM
RS-15 22 Oct 06:22:27 06:26:10 12° 35° (NE) 06:29:54 29.354 - 29.394 USB, Beacon 29.352 USB
AO-7 22 Oct 06:29:33 06:37:31 53° 291° (WNW) 06:45:30 29.400 - 29.500 MHz
Hamsat 22 Oct 07:18:34 07:22:45 74° 283° (WNW) 07:26:57 145.90 MHz
PANSAT 22 Oct 07:21:42 07:24:01 15° 154° (SSE) 07:26:19 not established
SO-67 22 Oct 07:32:29 07:33:44 12° 95° (E) 07:35:00 435.3500 MHz FM
STRAND 1 22 Oct 07:50:28 07:55:33 70° 258° (WSW) 08:00:41 ?
JAS-2 22 Oct 07:59:26 08:06:16 35° 291° (WNW) 08:13:05 435.800 - 435.900 CW/SSB, 435.910 FM
Saudisat 1A 22 Oct 08:12:01 08:16:13 48° 113° (ESE) 08:20:27 436.775 MHz
RS-15 22 Oct 08:30:33 08:41:34 56° 60° (ENE) 08:53:01 29.354 - 29.394 USB, Beacon 29.352 USB
PANSAT 22 Oct 09:00:05 09:03:48 50° 164° (SSE) 09:07:31 not established
SO-67 22 Oct 09:03:53 09:06:39 23° 286° (WNW) 09:09:25 435.3500 MHz FM
Saudisat 1A 22 Oct 09:54:05 09:56:00 13° 307° (NW) 09:57:55 436.775 MHz
UKube-1 22 Oct 10:15:41 10:18:56 20° 97° (E) 10:22:09 145.840 MHz, 145.915 MHz
HO-68 22 Oct 10:23:37 10:30:50 79° 104° (ESE) 10:38:00 435.675 MHz FM
PANSAT 22 Oct 10:40:04 10:43:54 85° 356° (N) 10:47:44 not established
RS-15 22 Oct 10:43:43 10:53:22 34° 254° (WSW) 11:03:26 29.354 - 29.394 USB, Beacon 29.352 USB
FUNcube-1 22 Oct 10:50:35 10:53:25 18° 96° (E) 10:56:13 145.950 - 145.970 MHz USB
MaSat-1 22 Oct 10:57:59 11:00:21 40° 67° (ENE) 11:02:36 437.345 MHz
Oscar 11 22 Oct 10:58:54 11:03:12 68° 101° (E) 11:07:28 145.825 FM, Beacon 2401.500 USB
AO-40 22 Oct 11:02:30 11:05:49 12° 206° (SSW) 11:08:22 Beacon 2401.320
ZACube-1 22 Oct 11:40:09 11:44:24 84° 102° (ESE) 11:48:33 437.345 MHz
UKube-1 22 Oct 11:51:29 11:54:59 24° 288° (WNW) 11:58:28 145.840 MHz, 145.915 MHz
